[[{"header":{"parameterUnit":"m.s-1","parameterCategory":2,"la1":30.2991,"la2":30.254,"lo1":-89.0895,"lo2":-89.0444,"dy":0.0017,"dx":0.0017,"nx":28,"ny":28,"refTime":"2023-08-09T21:00:00:Z","depth":"0","parameterNumber":2,"parameterNumberName":"U-component_of_CURRENTS"},"data":[0,0,0,0,0,0,0,0,0,0,0,0,0,0,0,0,0,0,0,0,0,0,0,0,0,0,0,0,0,0,0,0,0,0,0,0,0,0,0,0,0,0,0,0,0,0,0,0,0,0,0,0,0,0,0,0,0,0,0.6813,0.6813,0,0.6728,0.6726,0.6724,0.6609,0.6608,0.6607,0.6606,0.6545,0.6544,0.6543,0,0,0,0,0,0,0,0,0,0,0,0,0,0.6722,0.6725,0.6813,0.6813,0.6813,0.6728,0.6726,0.6723,0.6609,0.6608,0.6607,0.6606,0.6545,0.6544,0.6543,0,0,0,0,0,0,0,0,0,0,0,0,0,0.6701,0.6725,0.6813,0.6754,0.6748,0.6728,0.6726,0.6723,0.6609,0.6608,0.6606,0.6605,0.6545,0.6544,0.6543,0.656,0,0,0.6539,0.6538,0,0,0,0,0,0,0,0,0.6703,0.6703,0.6762,0.6758,0.6752,0.6688,0.6672,0.6674,0.6609,0.665,0.6606,0.6605,0.6603,0.6597,0.6567,0.6558,0.6555,0.6539,0.6538,0.6537,0.6537,0,0,0,0,0,0,0,0.6704,0.6705,0.6767,0.6763,0.6757,0.668,0.6676,0.667,0.6626,0.6646,0.664,0.665,0.6599,0.6568,0.6565,0.6554,0.6539,0.6538,0.6537,0.6536,0.6551,0.6552,0,0,0,0,0,0,0.6749,0.6708,0.677,0.6766,0.6737,0.6684,0.6679,0.67,0.6625,0.6616,0.6651,0.6645,0.6571,0.6567,0.6563,0.6583,0.6537,0.6536,0.6535,0.655,0.6551,0.6552,0,0,0,0,0,0,0.6747,0.6756,0.6773,0.6743,0.6741,0.669,0.6713,0.6699,0.6678,0.6631,0.6619,0.6647,0.657,0.6564,0.6549,0.658,0.6536,0.6534,0.6548,0.655,0.6552,0.6623,0,0,0,0,0,0,0.6745,0.6756,0.6776,0.6747,0.6745,0.6776,0.6715,0.6699,0.6691,0.6682,0.6624,0.6615,0.6568,0.6551,0.6548,0.6578,0.6533,0.6547,0.6549,0.6551,0.6619,0.6627,0.6634,0,0,0,0,0,0.6742,0.6777,0.6778,0.6785,0.678,0.6778,0.6769,0.6718,0.6693,0.6691,0.6639,0.6618,0.6563,0.6551,0.6547,0.6577,0.6546,0.6549,0.6551,0.6616,0.6626,0.6634,0,0,0,0,0,0,0.6739,0.6769,0.6769,0.6809,0.6806,0.6763,0.6757,0.6737,0.6693,0.668,0.6626,0.6614,0.662,0.6591,0.6579,0.6588,0.6555,0.6557,0.6606,0.6615,0.6622,0.6654,0.6532,0,0,0,0,0,0.6759,0.6789,0.6804,0.683,0.6838,0.6805,0.6797,0.6772,0.6739,0.6716,0.6677,0.6641,0.6628,0.6613,0.6595,0.6598,0.6628,0.6617,0.6624,0.663,0.6655,0.6742,0.676,0.6561,0.6561,0.6561,0,0,0.6761,0.6784,0.6798,0.6831,0.6816,0.6828,0.6792,0.6793,0.6788,0.6723,0.6693,0.6673,0.6637,0.6631,0.6632,0.6608,0.6699,0.6634,0.6639,0.6661,0.6747,0.6767,0.6784,0.6563,0.6562,0.6562,0,0,0.6779,0.6808,0.6839,0.6848,0.6862,0.6847,0.6863,0.684,0.6814,0.68,0.6757,0.6759,0.6715,0.67,0.6687,0.6733,0.6744,0.6726,0.6778,0.6862,0.688,0.6896,0.6949,0.6969,0.6718,0.6718,0.6718,0,0.6782,0.6825,0.6842,0.6871,0.6877,0.6868,0.6887,0.6869,0.6837,0.6834,0.6801,0.6781,0.6753,0.6771,0.6774,0.6753,0.6793,0.6744,0.6875,0.6891,0.6907,0.6957,0.6979,0.6722,0.6721,0.6721,0.6721,0,0.6824,0.685,0.6866,0.6902,0.6913,0.6925,0.6928,0.6927,0.6905,0.6892,0.6908,0.6871,0.6866,0.6859,0.6823,0.6914,0.6904,0.6885,0.6858,0.6932,0.6979,0.7,0.6727,0.6726,0.6725,0.6724,0,0,0.6839,0.6887,0.6888,0.6891,0.6929,0.6928,0.6953,0.6969,0.6982,0.6968,0.6989,0.698,0.6985,0.6974,0.6951,0.7009,0.7139,0.6995,0.6997,0.7057,0.732,0.7091,0.7092,0.7152,0.7157,0.716,0.7305,0,0.6857,0.6895,0.6927,0.6938,0.6949,0.6965,0.6981,0.6996,0.7005,0.7024,0.7034,0.7046,0.7021,0.7025,0.7091,0.7127,0.7202,0.7101,0.7232,0.7235,0.7032,0.7111,0.6704,0.6781,0.7326,0.733,0.7332,0,0.6882,0.6899,0.6921,0.6935,0.6945,0.6955,0.6983,0.7003,0.7056,0.7065,0.7119,0.7132,0.7211,0.7176,0.7326,0.7267,0.7317,0.7343,0.7349,0.713,0.7046,0.6797,0.6799,0.6591,0.7365,0.7362,0.736,0,0.6845,0.6885,0.6889,0.6897,0.6929,0.6937,0.6956,0.701,0.7019,0.711,0.7133,0.724,0.7267,0.7385,0.7435,0.7409,0.7591,0.7558,0.7406,0.7391,0.7065,0.701,0.6885,0.7701,0.77,0.77,0.77,0,0.6839,0.6837,0.6863,0.6858,0.6853,0.6901,0.6913,0.6957,0.7021,0.7035,0.7153,0.718,0.7327,0.7424,0.7495,0.7501,0.7653,0.744,0.7422,0.707,0.7018,0.6835,0.6788,0.7705,0.7704,0.7703,0.7702,0,0.6788,0.6814,0.6806,0.6829,0.6829,0.6823,0.6849,0.6856,0.6952,0.6984,0.7016,0.7158,0.7282,0.741,0.7578,0.7521,0.7355,0.7559,0.7112,0.7035,0.6619,0.659,0.6371,0.6212,0.7405,0.74,0.7396,0,0.6766,0.6757,0.6756,0.6722,0.6723,0.672,0.6707,0.6795,0.6807,0.6941,0.6942,0.7093,0.7152,0.73,0.7254,0.7326,0.72,0.6949,0.6807,0.6546,0.6508,0.6384,0.626,0.6421,0.641,0.64,0.6393,0,0.6695,0.6693,0.6668,0.6605,0.6572,0.6555,0.6556,0.6559,0.6662,0.6693,0.674,0.6817,0.6919,0.6739,0.6799,0.6812,0.6552,0.675,0.661,0.5829,0.5561,0.541,0.6386,0.6308,0.6316,0.6323,0.6327,0.6331,0.6607,0.6568,0.651,0.6424,0.6391,0.6344,0.6233,0.6278,0.6262,0.6178,0.6425,0.6321,0.624,0.6239,0.6233,0.5825,0.6007,0.5574,0.5602,0.5535,0.5221,0.5985,0.5795,0.58,0.5805,0.5809,0.5812,0,0.6424,0.6382,0.6317,0.6176,0.6035,0.6106,0.6052,0.5874,0.5742,0.5783,0.5738,0.5492,0.5287,0.523,0.4899,0.4685,0.459,0.4552,0.4293,0.4267,0.5032,0.4821,0.4247,0.4247,0.4247,0.4248,0.4248,0.4248,0.6317,0.6169,0.6118,0.5813,0.5715,0.5408,0.5318,0.5157,0.5088,0.4765,0.4526,0.4533,0.4551,0.4295,0.3964,0.3882,0.3683,0.3436,0.3618,0.4134,0.4231,0.4325,0.4112,0.3399,0.3398,0.261,0.2604,0.2599]},{"header":{"parameterUnit":"m.s-1","parameterCategory":2,"la1":30.2991,"la2":30.254,"lo1":-89.0895,"lo2":-89.0444,"dy":0.0017,"dx":0.0017,"nx":28,"ny":28,"refTime":"2023-08-09T21:00:00:Z","depth":"0","parameterNumber":3,"parameterNumberName":"V-component_of_CURRENTS"},"data":[0,0,0,0,0,0,0,0,0,0,0,0,0,0,0,0,0,0,0,0,0,0,0,0,0,0,0,0,0,0,0,0,0,0,0,0,0,0,0,0,0,0,0,0,0,0,0,0,0,0,0,0,0,0,0,0,0,0,-0.0104,-0.0104,0,-0.0087,-0.0087,-0.0086,-0.0097,-0.0097,-0.0098,-0.0099,-0.0055,-0.0053,-0.0051,0,0,0,0,0,0,0,0,0,0,0,0,0,-0.0101,-0.0101,-0.0104,-0.0104,-0.0104,-0.0087,-0.0087,-0.0086,-0.0097,-0.0097,-0.0098,-0.0099,-0.0056,-0.0053,-0.0051,0,0,0,0,0,0,0,0,0,0,0,0,0,-0.0093,-0.0101,-0.0104,-0.0109,-0.0109,-0.0087,-0.0087,-0.0086,-0.0096,-0.0097,-0.0099,-0.01,-0.0056,-0.0054,-0.0051,-0.0013,0,0,-0.0043,-0.0041,0,0,0,0,0,0,0,0,-0.0093,-0.0093,-0.0108,-0.0108,-0.0109,-0.0097,-0.007,-0.0061,-0.0096,-0.0099,-0.0099,-0.01,-0.0067,-0.0064,-0.0055,-0.0011,-0.0009,-0.0042,-0.0041,-0.004,-0.0039,0,0,0,0,0,0,0,-0.0094,-0.0093,-0.0095,-0.0108,-0.0108,-0.0097,-0.0097,-0.0068,-0.0075,-0.0099,-0.01,-0.0101,-0.0067,-0.0058,-0.0054,-0.0008,-0.0042,-0.004,-0.0038,-0.0037,0.0109,0.0111,0,0,0,0,0,0,-0.0102,-0.0094,-0.0095,-0.0095,-0.0106,-0.0096,-0.0096,-0.0098,-0.0076,-0.0075,-0.0101,-0.0102,-0.0062,-0.0057,-0.0053,0.0041,-0.004,-0.0037,-0.0035,0.0107,0.0109,0.0112,0,0,0,0,0,0,-0.0102,-0.0102,-0.0096,-0.0096,-0.0094,-0.0096,-0.0097,-0.0097,-0.0091,-0.0078,-0.0076,-0.0095,-0.0063,-0.0057,-0.0011,0.0041,-0.0036,-0.0033,0.0104,0.0107,0.011,0.0198,0,0,0,0,0,0,-0.0102,-0.0102,-0.0099,-0.0096,-0.0095,-0.0074,-0.0096,-0.0096,-0.0091,-0.0093,-0.0072,-0.007,-0.0063,-0.0015,-0.0008,0.0043,-0.0031,0.0101,0.0105,0.0109,0.0193,0.0204,0.0214,0,0,0,0,0,-0.0101,-0.0089,-0.0099,-0.0099,-0.0093,-0.0073,-0.007,-0.0074,-0.009,-0.0074,-0.0057,-0.007,0.0016,-0.0011,-0.0004,0.005,0.0099,0.0104,0.0109,0.0188,0.0202,0.0214,0,0,0,0,0,0,-0.0086,-0.009,-0.01,-0.0091,-0.0082,-0.0076,-0.0063,-0.007,-0.0046,-0.0045,-0.0042,-0.0036,0.0025,0.0024,-0.0007,0.0104,0.0056,0.0063,0.0114,0.0127,0.0138,0.0165,-0.0029,0,0,0,0,0,-0.0083,-0.0074,-0.0077,-0.0067,-0.0064,-0.0065,-0.0057,-0.0057,-0.0041,-0.0033,-0.0019,0.0008,0.0054,0.0076,0.0108,0.0167,0.0173,0.0206,0.0217,0.0226,0.0254,0.0335,0.0356,0.0128,0.0128,0.0128,0,0,-0.0075,-0.0075,-0.0071,-0.0062,-0.0058,-0.0022,-0.0062,-0.0043,-0.0002,-0.0028,0.0032,0.0044,0.0077,0.0148,0.0176,0.0153,0.0284,0.0233,0.024,0.0264,0.0343,0.0365,0.0385,0.0132,0.0131,0.013,0,0,-0.0041,-0.0054,-0.0031,-0.0016,-0.0004,0.0007,0.0012,0.0023,0.0036,0.0089,0.0092,0.014,0.0186,0.0237,0.0266,0.0357,0.0337,0.0355,0.0439,0.0517,0.0537,0.0555,0.0542,0.0558,0.0364,0.0364,0.0364,0,-0.0032,-0.0,-0.0018,0.0016,0.0044,0.0024,0.0074,0.0093,0.0122,0.0156,0.0119,0.0231,0.0242,0.0364,0.0392,0.0386,0.0392,0.0385,0.0533,0.0551,0.0568,0.0551,0.0567,0.0369,0.0368,0.0368,0.0367,0,0.0026,0.0056,0.0074,0.0117,0.0146,0.0183,0.0206,0.0239,0.0244,0.0269,0.036,0.038,0.0451,0.0461,0.0455,0.0588,0.0538,0.0534,0.05,0.0596,0.0571,0.0587,0.0376,0.0374,0.0372,0.0371,0,0,0.0037,0.0102,0.0112,0.0158,0.0205,0.024,0.0313,0.0386,0.0453,0.0469,0.0568,0.0631,0.0627,0.066,0.0661,0.0723,0.0816,0.0681,0.0683,0.0667,0.0931,0.0812,0.0816,0.0843,0.0847,0.0851,0.0847,0,0.0092,0.0182,0.0205,0.0312,0.0364,0.0389,0.047,0.0533,0.0572,0.0658,0.0688,0.0774,0.0709,0.075,0.0805,0.0839,0.087,0.0813,0.0842,0.0841,0.0727,0.0838,0.079,0.0778,0.0862,0.0865,0.0866,0,0.0144,0.0204,0.031,0.0427,0.0453,0.0518,0.0646,0.0715,0.082,0.0853,0.0927,0.0939,0.1041,0.0962,0.1052,0.1019,0.0983,0.0976,0.0976,0.0857,0.0756,0.0707,0.0803,0.059,0.089,0.0888,0.0887,0,0.0171,0.0283,0.0376,0.0412,0.0534,0.0598,0.0668,0.0776,0.0859,0.0982,0.1059,0.114,0.1211,0.1213,0.117,0.1133,0.1242,0.1186,0.1027,0.1014,0.0976,0.0953,0.088,0.1241,0.1241,0.1241,0.1241,0,0.0225,0.03,0.0396,0.0449,0.0583,0.0645,0.0791,0.0867,0.0995,0.1138,0.1162,0.1296,0.1288,0.1329,0.1251,0.1192,0.1302,0.1069,0.1039,0.0995,0.0975,0.0788,0.0681,0.1241,0.1241,0.1241,0.1241,0,0.0248,0.0302,0.042,0.0552,0.0598,0.0694,0.0855,0.097,0.1073,0.1262,0.1313,0.1446,0.1526,0.1455,0.1472,0.1302,0.1121,0.1181,0.1076,0.1033,0.0645,0.0545,0.0447,0.0387,0.1008,0.1006,0.1004,0,0.0272,0.0335,0.0485,0.0568,0.0633,0.0768,0.0881,0.0999,0.1131,0.1373,0.1492,0.1609,0.1756,0.1681,0.1442,0.1262,0.1089,0.1,0.0922,0.064,0.051,0.0426,0.0379,0.0882,0.0879,0.0877,0.0875,0,0.0343,0.0389,0.0493,0.0654,0.0777,0.0923,0.1087,0.1202,0.1381,0.1558,0.1828,0.1965,0.1883,0.1741,0.1416,0.1243,0.0825,0.0938,0.0736,0.0484,0.0312,0.0233,0.0791,0.0854,0.0856,0.0858,0.0859,0.086,0.0404,0.0493,0.0632,0.0789,0.0929,0.1119,0.1261,0.1454,0.1698,0.2003,0.2082,0.2333,0.198,0.1589,0.1297,0.0629,0.0695,0.041,0.0331,0.0285,0.0183,0.0633,0.0605,0.0606,0.0606,0.0607,0.0607,0,0.0523,0.0628,0.0772,0.0984,0.1158,0.12,0.1444,0.1605,0.1925,0.2194,0.2434,0.24,0.1958,0.1439,0.0563,0.0108,-0.0016,-0.0139,-0.0238,-0.0237,0.0245,0.0192,-0.0032,-0.0031,-0.0031,-0.0031,-0.0031,-0.003,0.06,0.0773,0.0853,0.1166,0.1309,0.1529,0.1676,0.1904,0.2126,0.2463,0.2612,0.2711,0.2257,0.0772,-0.0246,-0.0453,-0.0665,-0.0783,-0.0849,-0.0535,-0.0489,-0.0446,-0.0521,-0.0889,-0.089,-0.1288,-0.1292,-0.1296]}],[{"header":{"parameterUnit":"m.s-1","parameterCategory":2,"la1":30.2991,"la2":30.254,"lo1":-89.0895,"lo2":-89.0444,"dy":0.0017,"dx":0.0017,"nx":28,"ny":28,"refTime":"2023-08-09T21:00:00:Z","depth":"2","parameterNumber":2,"parameterNumberName":"U-component_of_CURRENTS"},"data":[0,0,0,0,0,0,0,0,0,0,0,0,0,0,0,0,0,0,0,0,0,0,0,0,0,0,0,0,0,0,0,0,0,0,0,0,0,0,0,0,0,0,0,0,0,0,0,0,0,0,0,0,0,0,0,0,0,0,0.3732,0.3734,0,0.3836,0.3836,0.3836,0.3809,0.3808,0.3807,0.3806,0.3814,0.3815,0.3816,0,0,0,0,0,0,0,0,0,0,0,0,0,0.3545,0.3548,0.3732,0.3734,0.3737,0.3835,0.3836,0.3836,0.3809,0.3808,0.3807,0.3805,0.3813,0.3815,0.3816,0,0,0,0,0,0,0,0,0,0,0,0,0,0.3626,0.3548,0.3732,0.3742,0.3745,0.3835,0.3836,0.3836,0.381,0.3808,0.3806,0.3805,0.3813,0.3815,0.3816,0.3862,0,0,0.3822,0.3823,0,0,0,0,0,0,0,0,0.3621,0.3631,0.3739,0.3742,0.3745,0.3816,0.3774,0.3844,0.381,0.3775,0.3806,0.3804,0.3814,0.3815,0.3826,0.3863,0.3863,0.3822,0.3824,0.3824,0.3825,0,0,0,0,0,0,0,0.3615,0.3627,0.3763,0.3741,0.3746,0.3754,0.3762,0.3786,0.3793,0.3777,0.3778,0.3806,0.3813,0.3824,0.3826,0.3863,0.3822,0.3824,0.3825,0.3826,0.4108,0.4114,0,0,0,0,0,0,0.3624,0.3622,0.376,0.3767,0.3689,0.376,0.3768,0.3787,0.3795,0.3798,0.3808,0.3805,0.3821,0.3823,0.3826,0.4019,0.3824,0.3826,0.3827,0.4101,0.4109,0.4116,0,0,0,0,0,0,0.3619,0.3634,0.3756,0.3705,0.3722,0.3765,0.3787,0.379,0.3848,0.3821,0.3819,0.3868,0.382,0.3823,0.3895,0.4013,0.3827,0.3829,0.4094,0.4104,0.4113,0.4316,0,0,0,0,0,0,0.3613,0.3632,0.3666,0.3705,0.3726,0.3824,0.3789,0.3794,0.387,0.3868,0.3872,0.3867,0.3819,0.3893,0.3897,0.4012,0.383,0.4086,0.4098,0.411,0.4301,0.4331,0.4357,0,0,0,0,0,0.3606,0.3632,0.3666,0.3685,0.3764,0.3827,0.3838,0.3855,0.3876,0.3902,0.3926,0.387,0.3973,0.3899,0.3903,0.4021,0.408,0.4095,0.4109,0.4289,0.4326,0.4356,0,0,0,0,0,0,0.3564,0.3636,0.3671,0.3721,0.3789,0.3827,0.3865,0.3902,0.3947,0.3964,0.3931,0.393,0.4051,0.4016,0.3936,0.4145,0.4027,0.4043,0.4164,0.4198,0.4225,0.4183,0.3832,0,0,0,0,0,0.358,0.3619,0.3699,0.3744,0.3787,0.3851,0.3893,0.3923,0.3967,0.3987,0.4013,0.4052,0.4111,0.4133,0.4169,0.4266,0.4232,0.4356,0.4384,0.4407,0.4383,0.4505,0.454,0.4163,0.4163,0.4162,0,0,0.3581,0.3627,0.3652,0.3741,0.3796,0.3865,0.3868,0.3954,0.4023,0.3983,0.4098,0.4155,0.4164,0.428,0.4332,0.4261,0.4495,0.4425,0.4445,0.4406,0.4523,0.4559,0.4591,0.4172,0.4171,0.4169,0,0,0.358,0.3649,0.3681,0.3754,0.3864,0.391,0.3957,0.4059,0.4111,0.4238,0.4251,0.4372,0.445,0.4486,0.4509,0.4717,0.4651,0.4766,0.4855,0.4978,0.5008,0.5035,0.501,0.5033,0.4766,0.4767,0.4767,0,0.3592,0.3637,0.3704,0.3768,0.3833,0.3941,0.4007,0.4089,0.4211,0.4279,0.4295,0.451,0.4542,0.4671,0.4761,0.4777,0.4789,0.472,0.5011,0.5036,0.506,0.5028,0.5051,0.4778,0.4777,0.4776,0.4774,0,0.3612,0.3677,0.3711,0.3822,0.3899,0.3983,0.4109,0.4225,0.4338,0.4425,0.4623,0.4702,0.4806,0.4894,0.4889,0.5098,0.5031,0.5041,0.4911,0.5109,0.5064,0.5083,0.4795,0.479,0.4787,0.4784,0,0,0.3583,0.3697,0.3719,0.378,0.3943,0.4008,0.4155,0.4304,0.4423,0.4597,0.4743,0.4929,0.5003,0.5036,0.5094,0.5225,0.5425,0.5222,0.5223,0.5167,0.5614,0.537,0.5365,0.5514,0.552,0.5524,0.5502,0,0.3594,0.3678,0.3741,0.3864,0.3936,0.408,0.4194,0.4359,0.4522,0.4702,0.4855,0.5027,0.5044,0.5152,0.5282,0.542,0.5492,0.5422,0.5452,0.5449,0.5188,0.5387,0.4949,0.4878,0.5519,0.5522,0.5525,0,0.3609,0.3666,0.3751,0.3894,0.394,0.4033,0.4255,0.4379,0.4635,0.4765,0.4955,0.5091,0.5307,0.5318,0.5549,0.5517,0.5562,0.5639,0.5641,0.5343,0.5244,0.4795,0.4888,0.5555,0.5553,0.5551,0.5549,0,0.356,0.3685,0.374,0.38,0.3974,0.4056,0.4172,0.4413,0.4546,0.4833,0.4978,0.5203,0.5363,0.5504,0.5641,0.5645,0.586,0.5864,0.5637,0.5614,0.52,0.5132,0.5989,0.5989,0.5989,0.5989,0.5989,0,0.3557,0.3625,0.3726,0.3781,0.3894,0.4027,0.4194,0.4358,0.4594,0.4749,0.5002,0.5139,0.5451,0.5603,0.5674,0.5686,0.5861,0.5654,0.5628,0.5254,0.5194,0.5747,0.572,0.5988,0.5989,0.5989,0.5989,0,0.3534,0.3586,0.368,0.3826,0.388,0.3981,0.4197,0.4328,0.4548,0.4762,0.4869,0.5172,0.5353,0.554,0.577,0.5701,0.5762,0.5694,0.5158,0.5069,0.5405,0.5389,0.5455,0.5447,0.544,0.5434,0.543,0,0.3532,0.3562,0.3701,0.3769,0.3848,0.3994,0.41,0.4304,0.4423,0.4726,0.4805,0.508,0.5182,0.5356,0.5326,0.533,0.5565,0.4921,0.4853,0.54,0.5369,0.5363,0.5356,0.4369,0.4356,0.4345,0.4337,0,0.3549,0.359,0.3674,0.3793,0.3897,0.3988,0.4132,0.4207,0.4422,0.4527,0.4701,0.4818,0.4931,0.4756,0.4738,0.4688,0.49,0.4697,0.5481,0.4568,0.4375,0.4344,0.4374,0.4241,0.4251,0.4258,0.4263,0.4267,0.3582,0.3641,0.3738,0.3808,0.394,0.3994,0.3959,0.4064,0.4131,0.4166,0.4386,0.4326,0.4375,0.4104,0.3984,0.3918,0.4254,0.4125,0.416,0.4206,0.4082,0.3888,0.3631,0.3636,0.3641,0.3646,0.365,0,0.3624,0.3675,0.3748,0.3795,0.3842,0.3952,0.3968,0.3809,0.3719,0.3789,0.3783,0.3431,0.3258,0.336,0.307,0.3047,0.3049,0.298,0.2975,0.3069,0.3152,0.2978,0.2233,0.2229,0.2225,0.2222,0,0,0.3663,0.3708,0.3666,0.3654,0.3716,0.3599,0.3557,0.3335,0.3242,0.3016,0.29,0.3027,0.3198,0.2648,0.2572,0.2371,0.271,0.2274,0.3403,0.3487,0.3566,0.3794,0.3626,0,0,0,0,0]},{"header":{"parameterUnit":"m.s-1","parameterCategory":2,"la1":30.2991,"la2":30.254,"lo1":-89.0895,"lo2":-89.0444,"dy":0.0017,"dx":0.0017,"nx":28,"ny":28,"refTime":"2023-08-09T21:00:00:Z","depth":"2","parameterNumber":3,"parameterNumberName":"V-component_of_CURRENTS"},"data":[0,0,0,0,0,0,0,0,0,0,0,0,0,0,0,0,0,0,0,0,0,0,0,0,0,0,0,0,0,0,0,0,0,0,0,0,0,0,0,0,0,0,0,0,0,0,0,0,0,0,0,0,0,0,0,0,0,0,-0.0067,-0.0067,0,-0.0089,-0.0089,-0.0088,-0.0117,-0.0118,-0.0119,-0.012,-0.0168,-0.0168,-0.0169,0,0,0,0,0,0,0,0,0,0,0,0,0,-0.0022,-0.0023,-0.0067,-0.0068,-0.0068,-0.0089,-0.0089,-0.0088,-0.0117,-0.0118,-0.012,-0.0121,-0.0168,-0.0168,-0.0169,0,0,0,0,0,0,0,0,0,0,0,0,0,-0.0036,-0.0023,-0.0066,-0.009,-0.0093,-0.0089,-0.0089,-0.0088,-0.0117,-0.0118,-0.012,-0.0121,-0.0168,-0.0168,-0.0169,-0.0138,0,0,-0.017,-0.017,0,0,0,0,0,0,0,0,-0.0035,-0.0037,-0.0086,-0.0089,-0.0092,-0.0108,-0.0091,-0.0109,-0.0116,-0.01,-0.012,-0.0122,-0.0154,-0.0155,-0.0146,-0.0141,-0.0143,-0.017,-0.017,-0.017,-0.017,0,0,0,0,0,0,0,-0.0034,-0.0036,-0.0069,-0.0087,-0.0091,-0.0091,-0.0094,-0.0094,-0.0113,-0.0102,-0.0106,-0.0119,-0.0155,-0.0145,-0.0147,-0.0143,-0.017,-0.017,-0.0171,-0.0171,-0.0093,-0.0091,0,0,0,0,0,0,-0.0045,-0.0035,-0.0068,-0.007,-0.0075,-0.0091,-0.0095,-0.0095,-0.0112,-0.0118,-0.0117,-0.012,-0.0144,-0.0147,-0.0149,-0.0123,-0.017,-0.0171,-0.0171,-0.0095,-0.0092,-0.009,0,0,0,0,0,0,-0.0044,-0.0047,-0.0067,-0.0059,-0.0063,-0.0091,-0.0091,-0.0095,-0.0115,-0.0125,-0.013,-0.0138,-0.0145,-0.0149,-0.0128,-0.0125,-0.0171,-0.0171,-0.0098,-0.0094,-0.0091,-0.0065,0,0,0,0,0,0,-0.0042,-0.0046,-0.0047,-0.006,-0.0064,-0.0068,-0.0091,-0.0095,-0.0122,-0.0127,-0.0144,-0.0148,-0.0147,-0.0127,-0.0129,-0.0126,-0.0172,-0.0101,-0.0096,-0.0092,-0.0069,-0.0061,-0.0054,0,0,0,0,0,-0.004,-0.0012,-0.0046,-0.0051,-0.0065,-0.0068,-0.0069,-0.009,-0.0122,-0.0117,-0.0111,-0.0149,-0.0102,-0.0125,-0.0128,-0.0126,-0.0103,-0.0098,-0.0093,-0.0072,-0.0062,-0.0055,0,0,0,0,0,0,0.0031,-0.0014,-0.0051,-0.0035,-0.0064,-0.0076,-0.0075,-0.0103,-0.0096,-0.0108,-0.0119,-0.012,-0.0101,-0.0104,-0.0131,-0.0084,-0.011,-0.0105,-0.0093,-0.0084,-0.0077,-0.007,-0.0172,0,0,0,0,0,0.0035,0.003,-0.0015,-0.0004,-0.0026,-0.0063,-0.0071,-0.0095,-0.0096,-0.0098,-0.0112,-0.0106,-0.0074,-0.0075,-0.0056,-0.0036,-0.0039,-0.0032,-0.0025,-0.0019,-0.0009,0.0038,0.0049,-0.0073,-0.0073,-0.0073,0,0,0.0066,0.0039,0.0037,0.0007,-0.0021,-0.0021,-0.007,-0.0088,-0.0079,-0.0102,-0.0092,-0.0089,-0.0059,-0.0023,-0.0017,-0.0035,0.0007,-0.0013,-0.0008,-0.0001,0.0044,0.0056,0.0066,-0.007,-0.007,-0.0071,0,0,0.0136,0.0091,0.0105,0.0076,0.0021,0.0001,-0.0015,-0.0054,-0.0068,-0.006,-0.0056,-0.0039,-0.0029,0.0011,0.0033,0.0093,0.0047,0.0081,0.0112,0.0158,0.0168,0.0177,0.0146,0.0152,0.008,0.008,0.008,0,0.0165,0.0182,0.0113,0.0114,0.0101,0.0008,0.0027,0.0007,-0.0016,-0.0007,-0.0055,0.0003,-0.0,0.0088,0.0105,0.0105,0.0097,0.007,0.0165,0.0174,0.0183,0.0149,0.0156,0.0082,0.0081,0.0081,0.0081,0,0.0248,0.0244,0.0249,0.0214,0.0194,0.0192,0.0135,0.0116,0.0065,0.0051,0.0081,0.0086,0.0125,0.012,0.0123,0.0192,0.0153,0.0167,0.0134,0.0196,0.0157,0.0163,0.0084,0.0084,0.0083,0.0083,0,0,0.0347,0.0315,0.0309,0.031,0.0242,0.0243,0.0238,0.0234,0.0258,0.0195,0.0249,0.0258,0.0222,0.0248,0.0243,0.0264,0.0287,0.023,0.0231,0.0182,0.033,0.0251,0.0248,0.0314,0.0317,0.0319,0.0261,0,0.0424,0.0464,0.0424,0.0457,0.0466,0.0385,0.0414,0.0388,0.035,0.0374,0.0339,0.0386,0.0284,0.0312,0.0307,0.033,0.0311,0.0297,0.0293,0.0292,0.0202,0.0258,0.0243,0.0189,0.0266,0.0267,0.0268,0,0.0511,0.0525,0.0571,0.0586,0.0584,0.0586,0.0595,0.061,0.0602,0.0587,0.0568,0.0535,0.0553,0.0465,0.0449,0.0442,0.0373,0.0351,0.0349,0.0276,0.0227,0.0152,0.0196,0.0278,0.0277,0.0276,0.0276,0,0.0611,0.063,0.0674,0.0667,0.0666,0.0674,0.0675,0.0665,0.0718,0.0717,0.0772,0.0723,0.0768,0.0668,0.0551,0.0517,0.0528,0.0488,0.0331,0.0321,0.031,0.0297,0.0462,0.0462,0.0462,0.0463,0.0463,0,0.0713,0.0743,0.0715,0.0731,0.0808,0.0763,0.0839,0.0839,0.0886,0.1014,0.0887,0.0999,0.0832,0.0794,0.0624,0.0491,0.0573,0.0341,0.0323,0.0313,0.0301,0.0392,0.0385,0.046,0.0461,0.0461,0.0462,0,0.0804,0.0788,0.0836,0.0839,0.0847,0.0888,0.0946,0.1032,0.1051,0.1217,0.1242,0.1243,0.1187,0.0963,0.0847,0.0639,0.0492,0.0413,0.0362,0.0337,0.0216,0.0211,0.0228,0.0225,0.0222,0.022,0.0219,0,0.0865,0.0892,0.0906,0.0945,0.0936,0.0989,0.1067,0.1104,0.1238,0.1402,0.1549,0.1511,0.1507,0.1219,0.0857,0.0498,0.0494,0.0267,0.0199,0.0222,0.0203,0.0201,0.02,0.0172,0.017,0.0169,0.0167,0,0.0967,0.0942,0.097,0.1057,0.1119,0.1236,0.1359,0.1487,0.1613,0.1749,0.1953,0.1934,0.1635,0.1274,0.0754,0.052,0.0306,0.0221,0.0335,0.0227,0.0165,0.0146,0.0148,0.0153,0.0155,0.0156,0.0157,0.0157,0.1018,0.1058,0.1084,0.1201,0.1282,0.1477,0.1579,0.176,0.1971,0.2146,0.2187,0.2113,0.173,0.1006,0.0622,0.0193,0.0213,0.005,0.0058,0.0068,0.0065,0.0003,-0.0045,-0.0045,-0.0044,-0.0044,-0.0044,0,0.1095,0.1145,0.125,0.1379,0.1504,0.1534,0.1787,0.1882,0.2118,0.2238,0.2291,0.1875,0.1461,0.1025,0.0357,-0.0022,-0.0039,-0.0121,-0.0056,-0.0041,-0.0028,-0.0032,-0.017,-0.0171,-0.0172,-0.0173,0,0,0.113,0.1248,0.1347,0.1576,0.1645,0.1791,0.1914,0.2053,0.2146,0.2191,0.2124,0.1991,0.1518,0.1021,0.0529,0.0177,0.0152,0.0102,0.0233,0.0379,0.0396,0.0088,0.01,0,0,0,0,0]}],[{"header":{"parameterUnit":"m.s-1","parameterCategory":2,"la1":30.2991,"la2":30.254,"lo1":-89.0895,"lo2":-89.0444,"dy":0.0017,"dx":0.0017,"nx":28,"ny":28,"refTime":"2023-08-09T21:00:00:Z","depth":"4","parameterNumber":2,"parameterNumberName":"U-component_of_CURRENTS"},"data":[0,0,0,0,0,0,0,0,0,0,0,0,0,0,0,0,0,0,0,0,0,0,0,0,0,0,0,0,0,0,0,0,0,0,0,0,0,0,0,0,0,0,0,0,0,0,0,0,0,0,0,0,0,0,0,0,0,0,0.0648,0.0648,0,0.0727,0.0728,0.073,0.0826,0.0827,0.0828,0.0829,0.096,0.0962,0.0965,0,0,0,0,0,0,0,0,0,0,0,0,0,0.065,0.065,0.0647,0.0648,0.0648,0.0727,0.0728,0.073,0.0826,0.0827,0.0828,0.0829,0.0959,0.0962,0.0965,0,0,0,0,0,0,0,0,0,0,0,0,0,0.0687,0.0649,0.0647,0.0701,0.0706,0.0726,0.0728,0.0731,0.0826,0.0827,0.0829,0.083,0.0958,0.0961,0.0965,0.0961,0,0,0.0977,0.0979,0,0,0,0,0,0,0,0,0.0684,0.0687,0.0693,0.0698,0.0703,0.0763,0.0777,0.0808,0.0825,0.0787,0.0829,0.0831,0.0893,0.0903,0.0922,0.0967,0.0972,0.0977,0.098,0.0981,0.0983,0,0,0,0,0,0,0,0.0682,0.0685,0.0685,0.0693,0.0699,0.0745,0.0752,0.0784,0.0837,0.079,0.0796,0.0795,0.0898,0.0918,0.0926,0.0974,0.0977,0.0981,0.0983,0.0985,0.1149,0.1151,0,0,0,0,0,0,0.0654,0.0682,0.0683,0.0687,0.069,0.0743,0.0751,0.0747,0.0836,0.0848,0.0793,0.0799,0.0911,0.0922,0.0931,0.1111,0.0981,0.0985,0.0987,0.1147,0.1149,0.1151,0,0,0,0,0,0,0.0654,0.0653,0.0679,0.0682,0.0688,0.0741,0.0736,0.0748,0.0794,0.0836,0.0852,0.083,0.0913,0.0926,0.0998,0.111,0.0987,0.099,0.1144,0.1147,0.115,0.1356,0,0,0,0,0,0,0.0654,0.0653,0.0674,0.0679,0.0686,0.0705,0.0734,0.0748,0.0786,0.0796,0.0871,0.0884,0.0915,0.0992,0.1002,0.1113,0.0993,0.1142,0.1146,0.1149,0.1346,0.1365,0.1382,0,0,0,0,0,0.0653,0.0681,0.0674,0.0676,0.0702,0.0705,0.0714,0.0761,0.0787,0.0809,0.0874,0.0883,0.1023,0.0996,0.1007,0.1123,0.114,0.1145,0.1149,0.1339,0.1362,0.1381,0,0,0,0,0,0,0.0699,0.0692,0.0686,0.071,0.0706,0.0719,0.0769,0.0768,0.0835,0.0877,0.0903,0.0921,0.1032,0.1019,0.0988,0.1172,0.1085,0.1092,0.1225,0.1247,0.1264,0.1252,0.0997,0,0,0,0,0,0.0708,0.073,0.0707,0.0729,0.0738,0.075,0.077,0.079,0.0829,0.0862,0.0927,0.099,0.1053,0.1101,0.1148,0.1238,0.1227,0.1314,0.1332,0.1347,0.134,0.1382,0.1404,0.1166,0.1166,0.1166,0,0,0.0725,0.0731,0.0741,0.0741,0.0763,0.0792,0.0771,0.0815,0.0864,0.0865,0.1005,0.1055,0.1082,0.1209,0.1257,0.1222,0.1424,0.1353,0.1367,0.135,0.1389,0.1413,0.1434,0.1169,0.1169,0.1168,0,0,0.0771,0.0784,0.0815,0.0817,0.0841,0.0857,0.0864,0.0905,0.0959,0.1045,0.1088,0.1183,0.1277,0.1344,0.1374,0.1495,0.1508,0.1533,0.1639,0.1683,0.1703,0.1721,0.181,0.1833,0.1554,0.1555,0.1555,0,0.0792,0.0823,0.0824,0.0852,0.0878,0.0884,0.0923,0.097,0.104,0.1112,0.1114,0.1301,0.1337,0.1476,0.1547,0.1544,0.1582,0.1572,0.171,0.1726,0.1741,0.1826,0.185,0.1565,0.1564,0.1563,0.1562,0,0.0838,0.0879,0.0908,0.0951,0.098,0.1019,0.1056,0.1139,0.121,0.1269,0.1427,0.1478,0.1613,0.1635,0.1641,0.1792,0.1796,0.1726,0.1666,0.1778,0.1861,0.1882,0.158,0.1576,0.1573,0.157,0,0,0.0826,0.092,0.0931,0.0983,0.1038,0.1071,0.1179,0.1278,0.1381,0.1482,0.1614,0.1746,0.1831,0.1865,0.1904,0.1918,0.2094,0.1896,0.1894,0.2003,0.2255,0.2024,0.2025,0.207,0.2073,0.2075,0.2299,0,0.0859,0.0941,0.0985,0.1094,0.114,0.1205,0.13,0.1406,0.151,0.1654,0.1734,0.1887,0.1906,0.201,0.2056,0.2075,0.2147,0.2042,0.211,0.2112,0.1907,0.2038,0.2085,0.2314,0.2319,0.2322,0.2325,0,0.0878,0.0935,0.1038,0.1182,0.1214,0.1301,0.1478,0.157,0.1749,0.1835,0.2011,0.2093,0.2263,0.2181,0.2346,0.2299,0.2327,0.2282,0.2289,0.1999,0.1915,0.2156,0.2361,0.2358,0.2355,0.2353,0.2351,0,0.0858,0.0985,0.1086,0.1121,0.1269,0.1377,0.1491,0.1659,0.1777,0.1993,0.2096,0.2297,0.2431,0.247,0.2517,0.2476,0.258,0.2514,0.2329,0.2317,0.2369,0.2346,0.2585,0.2585,0.2585,0.2584,0.2583,0,0.0861,0.0928,0.1107,0.1152,0.1289,0.1423,0.1624,0.1722,0.1935,0.2077,0.2248,0.233,0.2501,0.2598,0.2589,0.2554,0.2704,0.2369,0.2348,0.2459,0.2443,0.2389,0.2363,0.2592,0.259,0.2589,0.2587,0,0.0785,0.0897,0.0996,0.1198,0.1279,0.138,0.1671,0.1813,0.2014,0.2189,0.2282,0.2469,0.2586,0.2691,0.2749,0.2652,0.2597,0.2534,0.2716,0.2699,0.2304,0.2287,0.239,0.2383,0.2377,0.2373,0.2369,0,0.0755,0.0817,0.1,0.1079,0.1181,0.1397,0.1543,0.1802,0.1927,0.2202,0.2229,0.246,0.2561,0.2528,0.2579,0.2609,0.2523,0.2533,0.2347,0.2309,0.2282,0.2272,0.2263,0.236,0.2359,0.2357,0.2356,0,0.0677,0.0748,0.082,0.098,0.1142,0.1304,0.1528,0.1616,0.1906,0.2118,0.2199,0.2265,0.2364,0.2401,0.2475,0.2431,0.2536,0.2474,0.2484,0.2309,0.2275,0.2251,0.2247,0.2337,0.2339,0.2341,0.2342,0,0.0619,0.0616,0.0745,0.0889,0.1051,0.1161,0.1298,0.1494,0.1661,0.1978,0.1978,0.2156,0.2357,0.2302,0.2306,0.2322,0.2249,0.2137,0.2163,0.2184,0.1988,0.1906,0.186,0,0,0,0,0,0.0576,0.0591,0.0684,0.0819,0.0975,0.1096,0.127,0.1417,0.1693,0.1724,0.1882,0.1959,0.2019,0.2041,0.2013,0.2114,0.2207,0.2054,0.208,0.223,0.2253,0.2025,0,0,0,0,0,0,0.0534,0.0585,0.0628,0.0752,0.0887,0.1039,0.1148,0.1312,0.133,0.1607,0.1645,0.1854,0.192,0.2105,0.201,0.2022,0.1982,0.2179,0.2171,0.2218,0.2238,0.2256,0.2029,0,0,0,0,0]},{"header":{"parameterUnit":"m.s-1","parameterCategory":2,"la1":30.2991,"la2":30.254,"lo1":-89.0895,"lo2":-89.0444,"dy":0.0017,"dx":0.0017,"nx":28,"ny":28,"refTime":"2023-08-09T21:00:00:Z","depth":"4","parameterNumber":3,"parameterNumberName":"V-component_of_CURRENTS"},"data":[0,0,0,0,0,0,0,0,0,0,0,0,0,0,0,0,0,0,0,0,0,0,0,0,0,0,0,0,0,0,0,0,0,0,0,0,0,0,0,0,0,0,0,0,0,0,0,0,0,0,0,0,0,0,0,0,0,0,0.0386,0.0386,0,0.0345,0.0344,0.0344,0.0376,0.0377,0.0378,0.0379,0.0308,0.0305,0.0301,0,0,0,0,0,0,0,0,0,0,0,0,0,0.0452,0.0451,0.0386,0.0386,0.0385,0.0345,0.0344,0.0344,0.0375,0.0377,0.0378,0.038,0.0309,0.0305,0.0301,0,0,0,0,0,0,0,0,0,0,0,0,0,0.0419,0.0451,0.0386,0.0395,0.0395,0.0345,0.0344,0.0344,0.0375,0.0377,0.0379,0.0381,0.031,0.0305,0.0301,0.0234,0,0,0.0287,0.0285,0,0,0,0,0,0,0,0,0.0421,0.0417,0.0394,0.0394,0.0394,0.0366,0.0341,0.0305,0.0374,0.0384,0.0379,0.0381,0.0322,0.0317,0.0307,0.0231,0.0228,0.0286,0.0283,0.0281,0.028,0,0,0,0,0,0,0,0.0424,0.0419,0.0371,0.0393,0.0393,0.0387,0.0385,0.0334,0.0343,0.0383,0.0385,0.0378,0.0322,0.0311,0.0305,0.0227,0.0286,0.0282,0.0279,0.0278,0.0087,0.0085,0,0,0,0,0,0,0.0426,0.0421,0.0372,0.037,0.0411,0.0384,0.0382,0.0374,0.0345,0.0342,0.0376,0.038,0.0318,0.0311,0.0303,0.0264,0.0281,0.0277,0.0274,0.009,0.0087,0.0084,0,0,0,0,0,0,0.0427,0.0422,0.0374,0.0394,0.0387,0.0381,0.0372,0.0372,0.0378,0.0339,0.0337,0.0384,0.0319,0.0309,0.0263,0.026,0.0275,0.0271,0.0092,0.0089,0.0086,0.0159,0,0,0,0,0,0,0.043,0.0423,0.0433,0.0394,0.0386,0.0351,0.037,0.037,0.0369,0.0374,0.0344,0.0339,0.032,0.027,0.0258,0.0254,0.0267,0.0095,0.0091,0.0087,0.016,0.0159,0.0158,0,0,0,0,0,0.0432,0.0448,0.0433,0.0428,0.0395,0.035,0.0346,0.0349,0.0368,0.0363,0.0342,0.0341,0.0234,0.0264,0.0251,0.0246,0.0097,0.0092,0.0087,0.016,0.0159,0.0158,0,0,0,0,0,0,0.0494,0.0451,0.0435,0.044,0.0395,0.0356,0.037,0.0352,0.0332,0.0353,0.0316,0.0307,0.0259,0.0226,0.0261,0.017,0.0162,0.0154,0.0222,0.022,0.022,0.0242,0.0263,0,0,0,0,0,0.0504,0.0506,0.0444,0.045,0.0434,0.0398,0.0388,0.0378,0.0348,0.0345,0.0323,0.0283,0.022,0.0206,0.0151,0.0108,0.0067,0.0087,0.0087,0.0087,0.009,-0.0019,-0.0028,0.0067,0.0068,0.0068,0,0,0.0531,0.0509,0.0511,0.0463,0.0443,0.0419,0.0399,0.0391,0.038,0.0335,0.0337,0.0278,0.0202,0.0155,0.0131,0.0138,0.0047,0.008,0.0082,0.0085,-0.0026,-0.0035,-0.0042,0.0064,0.0065,0.0065,0,0,0.0579,0.0564,0.0572,0.053,0.0491,0.0462,0.0457,0.0416,0.0413,0.0378,0.0335,0.027,0.0211,0.0147,0.0105,0.0054,0.0036,0.0041,0.0074,-0.0031,-0.0039,-0.0047,-0.0056,-0.0065,0.0054,0.0054,0.0054,0,0.0609,0.0609,0.0567,0.055,0.0539,0.0482,0.0481,0.0448,0.04,0.0392,0.0393,0.0248,0.02,0.0096,0.0095,0.0057,0.0028,0.0099,-0.0028,-0.0037,-0.0046,-0.0054,-0.0065,0.0057,0.0057,0.0057,0.0056,0,0.0635,0.0639,0.0645,0.0607,0.0586,0.0577,0.0517,0.0503,0.0495,0.0458,0.0373,0.0271,0.0211,0.0151,0.0123,0.0022,0.0036,-0.002,-0.0009,-0.005,-0.0057,-0.0069,0.0061,0.006,0.006,0.0059,0,0,0.0684,0.0668,0.0671,0.0685,0.0621,0.0617,0.059,0.0549,0.0547,0.0467,0.0432,0.0301,0.0273,0.0218,0.0137,0.0021,-0.004,0.0,-0.0007,0.0023,-0.0198,-0.017,-0.018,-0.0112,-0.0116,-0.0118,-0.0156,0,0.0716,0.0728,0.071,0.074,0.0738,0.0692,0.0678,0.0636,0.0589,0.0539,0.0397,0.035,0.0291,0.0276,0.015,-0.0009,-0.0079,-0.0019,-0.0192,-0.0195,-0.0141,-0.0198,-0.0129,-0.0166,-0.0169,-0.0171,-0.0172,0,0.0738,0.0746,0.0791,0.082,0.0823,0.0856,0.0845,0.0828,0.0719,0.0678,0.0578,0.0484,0.0344,0.0279,0.003,0.008,-0.0019,-0.0165,-0.017,-0.0182,-0.0193,-0.0138,-0.0196,-0.0194,-0.0192,-0.019,-0.0189,0,0.0789,0.0815,0.088,0.0876,0.0881,0.0943,0.0973,0.0903,0.0907,0.0802,0.0771,0.0577,0.0515,0.0296,0.0087,0.0074,-0.0222,-0.0269,-0.0343,-0.0338,-0.0377,-0.037,-0.0444,-0.0444,-0.0444,-0.0444,-0.0444,0,0.0811,0.0839,0.0945,0.0967,0.1053,0.1069,0.1173,0.1106,0.1082,0.1056,0.0908,0.0783,0.0511,0.0317,0.0108,-0.013,-0.0165,-0.0339,-0.0371,-0.0338,-0.0327,-0.0381,-0.0374,-0.0445,-0.0445,-0.0445,-0.0444,0,0.079,0.0848,0.091,0.1019,0.1079,0.115,0.1317,0.1382,0.1334,0.1277,0.1266,0.099,0.073,0.046,0.0096,-0.0052,-0.0325,-0.0391,-0.0262,-0.0285,-0.0361,-0.035,-0.047,-0.047,-0.047,-0.047,-0.047,0,0.0768,0.0824,0.0965,0.1066,0.1141,0.131,0.1438,0.1481,0.1501,0.1348,0.127,0.1061,0.0854,0.0389,0.0083,-0.0251,-0.032,-0.0385,-0.0454,-0.0358,-0.0377,-0.0365,-0.0354,-0.047,-0.047,-0.047,-0.047,0,0.0715,0.0792,0.085,0.1084,0.1271,0.1404,0.1561,0.1579,0.1583,0.1571,0.1288,0.1041,0.0736,0.0358,0.0153,-0.0136,-0.0325,-0.0385,-0.0388,-0.0454,-0.0359,-0.0375,-0.0364,-0.0469,-0.0469,-0.0469,-0.0469,0,0.0711,0.0741,0.0919,0.1088,0.1295,0.1409,0.1499,0.1553,0.1565,0.1404,0.1297,0.0967,0.0798,0.0414,0.0152,-0.0047,-0.0129,-0.0198,-0.0213,-0.0216,-0.0155,0.0003,-0.0029,0,0,0,0,0,0.0721,0.0796,0.0957,0.1126,0.1315,0.1419,0.1537,0.1611,0.1609,0.1444,0.1383,0.1089,0.0685,0.0441,0.0248,0.0125,-0.017,-0.0111,-0.0257,-0.0467,-0.0468,-0.0441,0,0,0,0,0,0,0.0738,0.0883,0.0929,0.1101,0.1251,0.1432,0.1491,0.1487,0.1365,0.1333,0.1103,0.1056,0.0642,0.0818,0.0247,0.0176,0.0058,-0.0282,-0.0286,-0.0467,-0.0467,-0.0468,-0.0441,0,0,0,0,0]}]]